Wind_Speed
13 23 27 32 30 23 21 19 18 20 21 21 21 20 22 22 34 38 40 43 37 26 29 29 32 29 34 32 37 32 27 28 29 26 23 19 21 21 21 18 23 25 25
15 15 24 26 31 29 24 22 20 20 20 20 21 20 25 27 34 35 42 37 26 26 30 26 33 17 33 24 34 28 22 25 28 17 20 2 8 20 25 23 24 25 27
19 17 17 25 28 30 28 25 23 20 19 22 21 22 22 25 22 32 32 35 28 25 31 25 31 23 26 32 28 26 21 15 19 17 15 3 4 7 18 27 28 28 26
19 19 17 20 27 29 30 25 23 23 22 23 25 25 24 23 23 29 23 30 32 32 29 31 32 31 27 21 24 25 21 23 21 20 22 17 9 3 1 16 29 28 31
23 20 19 24 28 34 32 26 25 27 25 27 29 25 24 22 27 27 25 26 31 34 32 30 29 30 27 26 24 24 28 27 27 24 25 24 17 12 3 3 7 27 30
21 20 22 26 25 33 33 29 27 26 26 28 29 28 27 26 23 27 28 25 30 32 33 33 30 31 31 28 27 32 31 31 29 25 29 25 15 15 7 3 7 18 27
21 19 19 16 23 28 31 32 30 25 27 28 29 34 29 29 31 30 31 27 28 28 34 34 30 28 31 34 32 31 32 30 37 34 28 29 29 20 15 13 8 9 19
20 20 20 18 26 28 31 31 31 27 27 29 29 32 31 32 31 34 32 32 29 30 34 37 40 36 30 30 33 34 31 35 39 38 35 31 31 25 21 24 16 2 11
17 21 19 20 27 29 33 35 32 31 28 29 30 29 29 31 31 33 34 34 33 33 26 36 39 43 39 31 32 33 35 33 35 36 35 36 37 33 30 36 30 19 6
7 17 18 17 28 33 36 34 37 34 34 28 30 30 32 30 31 33 35 35 35 36 33 32 35 38 41 41 34 38 39 36 39 39 40 40 39 38 36 38 38 37 26
8 7 13 22 31 31 31 32 32 32 34 37 31 29 32 32 32 33 36 39 38 40 41 38 39 38 38 42 43 39 40 39 41 42 40 44 43 40 39 41 39 40 33
16 17 19 19 8 26 26 31 31 32 35 39 37 35 29 32 33 36 35 36 39 39 42 43 39 40 40 40 43 42 37 39 38 40 40 43 40 41 41 40 38 37 36
18 17 17 17 18 19 6 26 29 30 30 36 38 37 36 36 36 38 36 38 38 41 40 41 46 45 44 43 42 42 40 40 41 41 40 44 38 40 39 38 36 35 38
15 15 14 14 17 20 21 16 8 20 30 31 36 36 38 40 40 37 35 37 39 38 41 43 44 44 43 44 46 46 42 42 43 43 43 44 42 44 41 38 39 38 34
17 17 15 13 16 20 20 20 17 21 26 26 32 36 41 41 41 41 42 37 40 40 40 40 42 42 44 46 44 45 46 45 45 44 44 44 45 46 46 39 38 34 33
14 16 17 17 16 21 22 22 22 26 24 21 32 28 33 36 40 40 40 41 42 43 39 45 42 41 45 48 49 46 43 44 43 43 42 42 43 45 47 48 47 43 39
16 15 14 13 20 24 26 26 26 23 21 20 20 23 30 32 38 39 38 41 43 41 45 44 42 46 45 46 47 51 51 40 39 39 37 37 43 47 48 49 49 46 43
15 13 11 17 21 26 31 33 31 27 24 22 24 26 28 18 30 34 38 40 40 41 43 44 46 42 44 47 49 51 50 45 42 39 41 40 38 42 42 38 31 22 19
13 16 20 20 22 26 26 26 27 29 28 29 28 27 23 23 28 24 35 41 40 38 39 39 37 41 44 42 46 47 48 42 36 36 35 34 36 35 34 33 23 18 20
20 20 20 19 20 22 23 23 24 25 28 31 32 30 26 24 26 29 32 39 39 40 35 31 33 35 34 39 42 41 40 35 28 19 17 15 20 19 23 27 28 28 25
24 22 20 19 19 20 18 17 19 24 28 28 28 27 26 25 25 30 31 22 30 32 30 27 18 16 16 16 15 33 34 34 25 18 15 14 15 18 20 22 25 28 29
24 27 22 22 23 24 21 19 20 22 21 24 25 25 26 23 23 25 24 12 2 20 22 22 17 12 8 8 10 14 22 25 28 26 28 30 30 31 32 34 35 31 29
20 21 19 19 22 26 26 24 26 27 22 20 20 22 24 26 24 25 25 16 8 10 10 16 18 20 24 27 26 30 33 34 38 35 40 39 38 33 35 36 28 32 29
17 18 19 20 22 25 25 24 25 24 20 19 20 22 24 28 32 28 28 24 19 17 16 13 21 22 26 26 26 32 38 45 42 41 34 37 41 38 29 28 26 29 28
15 17 18 19 21 24 26 27 27 24 21 21 21 21 22 24 32 42 35 31 35 25 23 22 18 21 22 25 28 27 30 32 38 30 34 30 17 28 26 25 26 24 23
14 17 18 18 20 22 24 27 25 23 19 20 21 22 22 21 24 28 38 47 45 46 45 40 33 38 29 39 35 33 29 29 26 24 25 24 24 18 20 20 23 23 21
Wind_Direction
177 155 151 151 155 158 165 173 178 179 180 178 183 197 205 184 184 185 182 175 176 188 187 186 182 193 193 190 178 175 182 180 177 175 181 193 198 203 207 206 209 211 209
157 149 141 149 158 164 172 170 177 179 179 181 181 185 195 194 185 181 180 182 175 179 173 175 180 171 181 176 176 173 173 186 179 178 171 163 193 205 211 213 213 211 213
159 157 153 156 158 165 174 179 183 185 180 163 168 152 149 150 158 167 179 188 183 168 164 160 172 178 169 175 176 177 182 177 201 199 175 127 207 207 217 220 221 224 220
164 164 159 156 163 169 175 173 183 181 181 172 154 151 151 155 163 165 178 190 193 186 170 172 174 181 195 177 183 184 178 195 210 207 199 197 165 170 200 226 227 225 226
165 168 169 166 158 166 175 179 184 180 184 181 170 160 160 162 162 175 178 183 191 196 191 187 193 198 193 194 188 193 198 210 218 217 218 222 231 233 149 231 229 225 228
167 166 166 160 155 164 172 176 176 177 182 183 181 174 170 171 174 180 184 183 194 196 196 193 200 205 208 203 198 204 208 209 219 222 221 225 225 222 188 178 213 211 227
160 157 158 163 164 159 166 172 176 181 185 186 185 190 184 183 186 189 190 195 190 190 200 204 206 207 214 215 211 212 212 215 223 225 223 227 235 235 219 211 212 213 229
155 159 166 167 169 164 165 171 177 184 191 191 190 192 191 191 195 197 196 199 198 200 202 206 213 212 217 221 221 225 221 220 227 227 229 231 235 241 249 252 237 258 237
150 167 167 168 169 169 171 175 176 180 192 196 194 195 197 198 199 203 204 206 204 205 206 216 216 217 219 224 226 226 225 223 229 235 236 238 240 241 247 251 250 237 244
113 160 168 170 173 175 175 174 180 182 188 196 200 201 202 201 204 205 206 210 212 212 213 216 220 222 225 227 232 231 231 231 235 237 238 241 242 246 245 246 249 247 238
77 95 178 175 176 175 174 177 177 181 186 195 202 206 205 207 211 211 211 214 216 216 217 220 223 226 229 230 229 231 232 233 235 238 238 242 243 242 241 245 245 245 243
57 57 57 42 185 172 171 179 184 186 188 194 197 207 209 208 210 215 215 214 216 218 219 221 224 225 225 227 227 226 226 227 230 232 231 238 238 238 239 240 237 239 241
58 46 41 47 47 42 214 183 187 194 194 190 195 200 207 214 217 219 218 223 222 219 219 221 223 226 226 227 229 228 227 228 230 231 230 234 231 232 234 234 237 239 242
58 57 46 43 45 45 37 43 247 219 196 192 195 200 203 209 216 222 227 223 223 221 223 223 224 225 227 229 229 229 229 229 231 233 233 234 232 233 236 235 237 238 237
46 50 50 38 28 26 24 27 12 8 226 207 199 205 207 209 211 214 220 225 224 225 224 225 226 225 226 227 226 227 230 232 235 236 235 235 235 236 238 237 240 240 238
56 46 34 30 31 24 14 9 6 357 356 247 235 220 208 207 211 213 213 217 225 227 226 229 228 227 228 230 228 225 227 230 231 233 233 234 238 242 245 247 248 243 238
62 53 45 38 26 15 4 359 353 353 358 347 1 258 235 214 214 215 213 216 219 220 224 229 230 232 233 234 234 233 231 231 230 233 235 238 242 245 247 249 249 245 240
61 51 45 44 30 16 2 350 352 354 355 0 353 352 1 317 242 216 213 219 220 219 221 224 227 231 234 235 235 236 237 235 236 237 238 238 239 243 242 241 235 236 245
65 56 53 48 34 14 358 352 351 350 353 350 345 341 339 340 323 299 222 222 223 221 222 224 227 228 233 235 235 235 235 235 235 236 236 238 239 237 231 224 193 145 110
51 53 48 51 37 12 1 357 352 352 347 341 336 333 335 335 327 318 314 232 222 221 220 220 223 225 227 234 234 233 228 221 214 214 222 226 223 206 205 193 157 115 116
40 39 40 45 30 13 7 3 357 350 335 334 335 337 338 337 338 330 325 279 219 207 201 196 192 204 214 221 231 232 225 214 184 165 142 142 160 157 157 152 139 126 125
26 25 24 22 15 11 8 5 1 346 342 342 344 346 347 349 352 354 344 348 139 166 154 146 129 119 119 158 169 189 200 177 144 112 108 109 115 116 120 120 116 116 113
29 22 19 15 14 11 10 1 353 352 356 2 6 7 11 13 18 18 8 13 67 68 85 98 87 75 74 79 97 120 119 114 107 107 108 101 94 88 101 110 107 112 103
30 21 21 20 12 8 10 8 360 1 11 18 20 20 29 35 38 40 34 30 31 63 60 67 97 93 89 81 82 91 94 104 103 108 92 95 108 104 96 92 95 93 99
36 35 32 26 16 12 14 14 13 17 21 28 30 31 35 46 56 57 53 54 55 66 73 66 59 88 89 84 100 98 97 100 107 106 103 100 83 94 95 87 91 86 84
44 46 37 33 23 23 22 22 29 35 40 40 37 35 38 40 57 66 70 61 63 70 77 78 78 73 86 98 95 90 96 95 92 82 87 87 88 80 86 88 83 85 83
Height
694 700 706 712 720 727 732 738 742 745 748 752 755 757 758 761 765 770 774 780 787 791 796 798 804 809 814 818 824 827 832 836 840 844 848 853 854 857 858 859 860 863 864
693 699 705 710 716 723 730 735 739 743 746 749 752 755 757 760 763 767 772 780 786 788 792 794 801 807 811 817 820 824 829 833 836 841 846 852 854 853 854 856 857 858 860
689 696 702 707 713 719 726 732 736 740 744 746 749 753 755 759 763 766 772 777 783 786 789 793 799 806 812 817 818 821 826 831 835 837 841 849 851 848 850 851 853 855 857
679 687 694 702 708 715 722 728 733 738 743 745 746 749 752 756 761 765 772 776 781 786 788 796 802 807 810 810 815 819 824 831 833 835 837 838 839 845 848 846 848 850 852
671 682 688 694 701 709 718 724 731 736 740 743 746 749 752 757 761 766 771 776 780 784 787 791 796 800 804 808 813 817 822 826 828 830 832 834 836 839 841 844 842 845 846
666 674 683 692 699 705 713 721 728 734 738 742 744 747 750 754 760 765 769 773 777 781 784 789 793 797 802 806 810 814 817 819 824 826 827 829 831 832 835 838 838 837 838
663 674 683 690 697 702 708 716 724 731 735 739 743 745 749 753 756 761 765 770 774 778 782 787 791 794 798 803 806 809 811 813 819 821 822 824 825 828 830 831 833 833 833
659 669 677 683 690 696 703 711 718 726 732 735 740 744 748 751 755 759 762 765 768 773 778 781 786 792 796 800 803 805 807 809 812 815 817 818 820 823 824 827 828 830 829
659 664 671 678 685 691 697 702 711 718 727 732 736 742 745 748 751 755 759 762 765 769 774 779 782 786 790 794 797 799 803 804 806 809 810 812 814 816 816 820 820 823 825
656 661 666 673 679 683 688 697 704 710 718 727 731 735 739 742 746 750 753 756 760 765 769 772 775 780 784 787 790 792 795 797 800 801 803 804 806 808 809 811 813 813 814
660 662 664 666 671 679 686 693 700 706 712 718 727 731 733 736 741 744 747 750 754 757 760 764 767 770 774 778 781 783 785 787 791 793 794 795 797 798 800 801 803 804 805
668 671 677 678 678 677 685 689 695 700 704 709 717 725 730 732 735 737 741 744 747 750 752 756 759 762 765 769 770 772 775 777 780 781 785 784 787 788 790 791 792 793 793
676 677 678 684 688 692 694 688 693 696 700 704 709 715 721 726 727 729 733 737 740 742 745 748 748 751 754 758 761 763 766 767 768 772 773 773 777 777 778 779 782 782 783
681 685 687 690 695 699 701 700 703 701 696 699 702 705 708 713 718 724 728 729 732 734 737 737 739 742 745 747 750 752 754 756 758 761 762 762 765 765 767 769 770 771 773
684 688 695 697 697 698 701 703 703 700 699 698 695 695 697 701 705 710 715 720 723 724 727 730 730 733 734 735 737 740 743 747 749 750 751 752 753 754 756 759 760 762 762
695 695 695 698 703 705 706 705 705 702 700 698 694 692 691 694 696 699 702 708 711 714 718 718 720 722 721 722 725 729 732 735 736 736 738 740 743 744 747 749 750 750 749
701 705 707 709 710 710 709 706 705 704 702 699 696 694 691 688 686 688 692 694 696 701 703 706 709 709 711 713 717 720 723 724 724 725 728 729 730 733 736 738 738 738 738
711 714 716 717 718 716 712 707 703 702 699 698 696 693 690 688 684 679 680 682 683 687 688 691 694 698 698 701 705 709 713 713 714 715 716 717 719 722 725 726 727 728 729
718 720 722 724 723 723 720 714 709 704 700 697 694 692 691 687 683 680 672 669 672 674 676 678 683 685 686 690 691 697 700 703 705 705 706 708 709 712 714 717 718 722 727
723 724 726 728 729 729 725 720 716 711 706 701 695 691 687 683 679 675 668 659 658 659 665 669 670 671 674 676 680 685 687 690 693 697 699 700 702 703 705 708 712 720 726
729 730 730 731 734 733 729 726 722 716 712 706 699 692 686 680 674 667 659 652 649 650 653 658 663 666 667 670 672 675 677 680 685 691 695 698 699 700 704 708 716 719 724
730 729 730 732 734 733 729 726 723 720 714 707 700 695 687 680 672 666 660 653 651 646 650 655 660 664 667 666 667 669 673 677 681 691 698 702 704 706 709 712 717 723 725
741 741 740 738 736 733 729 725 722 717 712 707 703 699 692 683 673 669 666 661 657 660 661 661 667 673 674 676 673 669 674 681 685 694 698 704 710 723 716 715 730 724 725
747 747 744 741 739 736 733 729 724 720 716 712 708 705 698 691 681 675 674 672 669 666 671 674 669 675 677 683 687 685 686 683 693 696 712 716 706 714 734 734 736 725 726
753 752 750 748 746 742 737 733 728 724 721 718 714 712 708 703 695 689 686 685 683 680 679 684 691 681 694 682 692 698 698 700 696 713 700 715 741 716 728 730 733 737 741
759 756 755 754 752 748 745 740 735 732 728 726 723 721 718 716 708 705 698 698 697 692 692 694 703 697 712 691 701 703 706 707 715 724 719 723 727 742 738 744 738 741 750